Wind_Speed
14 14 14 14 14 14 13 12 12 12 11 10 10 10 9 8 8 11 13 9 14 7 4 1 2 5 11 3 3 2 4 1 4 4 4 6 4 4 1 4 6 7 2 7 24
15 15 16 15 15 15 14 13 12 11 10 9 9 9 8 8 9 10 5 11 11 10 6 2 4 8 3 1 3 3 3 6 6 5 4 6 4 8 2 4 4 4 5 16 28
16 16 16 16 16 16 15 14 12 10 9 7 8 7 7 8 2 4 2 13 15 10 5 3 5 5 1 2 4 4 4 4 10 17 8 6 5 5 6 4 12 15 21 30 29
16 17 17 17 17 17 16 15 12 10 7 7 6 6 6 3 3 6 4 12 14 11 5 1 4 4 3 2 3 2 13 12 12 6 6 7 8 4 14 7 6 16 20 32 30
18 18 18 18 18 18 17 15 12 9 6 6 5 4 4 2 2 3 6 8 11 9 5 2 2 3 2 5 6 2 5 10 7 16 13 9 8 5 16 18 6 19 24 30 29
19 19 18 18 18 18 17 15 11 7 6 5 4 4 3 2 4 3 3 4 10 8 6 1 4 10 4 4 1 9 13 15 5 12 10 7 3 2 5 14 16 24 28 28 28
20 19 19 19 18 18 17 15 10 6 4 4 4 4 5 4 4 4 1 2 9 7 5 1 5 9 8 6 12 9 6 9 2 7 6 11 1 10 8 18 22 25 29 29 29
20 21 20 19 18 17 18 13 8 4 4 5 4 4 3 8 7 5 2 2 9 8 5 2 6 7 4 9 7 5 4 7 6 3 2 10 11 4 15 26 24 26 28 33 32
21 22 20 20 18 17 16 10 5 4 4 4 3 3 1 5 5 6 6 4 7 6 4 4 6 3 5 4 5 7 3 4 13 7 3 3 8 3 22 29 24 26 30 32 34
22 22 21 20 18 16 12 6 5 6 4 4 4 2 2 1 3 7 6 5 3 3 3 1 3 4 4 5 2 4 5 6 5 7 4 5 13 1 19 25 28 27 29 33 33
22 22 21 20 16 14 8 1 4 3 5 6 8 5 1 4 5 10 8 5 2 3 3 5 6 6 6 3 1 2 3 5 10 8 2 5 7 9 18 19 18 25 30 34 38
23 23 21 19 14 8 6 3 5 7 8 10 11 11 9 5 3 11 8 4 3 2 3 6 5 6 4 5 5 5 5 7 9 2 3 5 9 9 10 23 33 32 32 38 38
23 23 20 17 12 2 3 4 8 6 2 5 4 7 7 6 5 11 11 4 4 2 1 5 5 3 2 2 3 4 5 5 7 7 4 6 8 12 9 13 14 20 25 31 40
23 22 20 16 7 2 3 4 9 3 4 4 2 4 10 6 2 12 12 6 2 9 6 5 6 5 5 4 5 3 4 4 4 3 3 3 4 13 18 11 16 22 29 30 33
23 21 19 16 12 6 4 4 6 2 3 1 3 3 12 7 5 9 18 12 6 5 6 7 4 5 5 7 6 8 2 1 2 2 3 5 5 8 8 18 27 28 34 23 35
22 21 19 16 10 6 7 2 1 5 1 1 5 5 5 1 1 5 8 6 2 4 2 8 3 5 8 7 7 2 1 6 4 3 4 6 4 6 13 17 22 28 35 31 14
21 21 20 12 3 5 6 2 5 3 4 3 3 4 3 3 2 3 5 5 4 3 3 6 4 4 4 2 2 6 6 4 5 5 3 4 10 3 11 15 17 22 33 33 26
21 19 14 7 9 8 6 4 2 4 5 3 3 3 5 6 3 2 4 4 3 4 1 1 6 4 1 2 6 3 6 5 2 0 4 2 5 2 10 18 21 22 29 41 44
19 11 4 4 10 11 5 3 6 5 3 4 3 4 2 3 3 2 6 7 8 10 7 3 4 5 6 2 2 3 3 3 7 3 3 3 5 2 19 20 32 34 36 39 42
13 3 3 4 13 10 4 4 4 4 4 2 3 3 3 2 5 5 6 3 4 11 6 5 1 3 5 4 11 6 5 4 4 2 1 2 2 5 17 18 20 25 31 35 38
6 3 4 10 15 3 3 6 6 10 5 3 2 3 3 3 3 1 1 3 4 2 7 4 4 5 5 6 3 4 3 7 5 3 4 1 2 2 7 11 15 25 27 29 36
2 3 8 14 3 2 2 5 4 6 3 2 2 3 3 3 4 2 3 3 15 4 6 2 5 3 3 3 4 4 3 3 4 3 2 3 3 1 5 9 14 22 25 28 32
2 4 10 4 2 2 4 4 4 4 3 4 3 5 5 4 3 2 1 5 12 4 5 6 2 3 8 5 4 6 3 3 5 3 1 3 3 2 8 9 13 17 26 31 33
2 2 3 5 1 3 2 4 4 0 3 6 3 4 4 5 6 2 3 5 11 6 7 6 3 5 6 3 3 4 6 4 3 3 4 3 3 3 7 9 16 20 25 26 30
4 1 1 1 2 1 2 2 3 3 4 11 5 5 2 3 3 3 3 6 5 11 5 4 4 4 5 4 5 4 5 8 4 2 2 5 4 3 5 9 16 20 26 27 27
4 3 3 1 5 1 3 2 1 0 4 3 6 3 3 4 1 4 1 2 1 7 4 4 3 4 3 5 5 6 5 5 5 5 5 4 1 3 11 16 20 21 21 23 24
6 4 3 5 3 2 2 3 1 3 9 6 6 4 5 3 2 1 1 1 1 1 2 3 5 3 2 5 1 2 1 1 3 2 3 4 2 5 6 14 19 20 12 20 23
Wind_Direction
9 5 0 355 350 344 336 327 319 314 312 310 308 307 307 295 275 263 245 197 201 191 196 252 351 331 319 284 202 155 61 234 248 195 245 164 149 137 170 137 161 181 155 171 162
6 3 359 356 353 347 340 332 324 317 315 311 309 310 310 307 289 262 216 195 194 192 195 248 344 332 329 315 171 119 135 225 219 210 231 170 142 159 153 162 176 131 167 171 167
2 0 357 355 352 349 343 337 328 321 318 314 313 314 317 324 334 39 233 195 194 197 216 302 343 338 17 200 202 176 232 214 270 240 256 130 138 175 147 222 213 166 155 169 170
357 355 354 353 351 348 345 338 330 323 319 316 318 318 319 329 135 50 61 186 186 190 212 285 346 350 9 296 236 218 254 240 275 293 200 158 145 211 197 226 281 211 179 172 175
352 351 350 350 349 347 344 339 331 325 320 319 320 317 320 269 107 59 56 158 182 189 199 210 347 11 324 306 318 214 285 332 275 249 222 161 160 221 234 227 239 182 180 182 183
349 348 346 346 346 346 342 339 331 326 321 324 321 311 295 288 145 103 28 179 194 192 195 189 355 336 292 275 307 300 285 287 272 202 187 177 171 140 252 209 183 180 187 193 194
346 345 343 341 343 343 340 336 332 325 324 324 317 301 258 188 177 176 169 208 186 188 195 316 341 338 321 327 334 311 330 340 102 196 201 152 194 236 217 184 184 193 194 199 205
345 343 341 338 338 342 338 335 330 330 331 327 321 303 241 192 194 212 184 125 170 177 175 280 326 329 355 316 352 10 40 359 300 111 249 171 269 264 194 182 184 198 203 206 209
341 341 339 335 336 341 336 336 336 332 329 324 318 315 203 214 238 189 169 126 147 170 182 289 322 24 20 34 9 10 306 329 323 348 122 199 261 266 190 188 192 195 204 209 216
338 339 338 334 336 340 336 328 323 308 292 315 286 349 22 327 190 180 174 153 140 155 162 178 55 46 34 61 235 306 338 312 241 299 179 206 266 245 200 194 200 201 207 213 216
335 335 336 334 337 344 349 322 329 315 278 261 279 292 343 72 150 178 178 167 173 78 82 35 53 255 245 205 187 304 250 263 287 260 286 272 263 251 199 211 211 207 212 216 227
331 332 334 334 334 347 29 73 44 328 308 300 255 254 247 285 138 173 183 159 110 101 52 21 260 255 192 192 201 207 243 266 283 290 201 343 292 267 184 210 208 210 213 220 228
327 329 331 333 326 315 64 88 359 342 283 291 260 226 198 194 180 183 175 161 102 81 121 161 237 262 269 214 254 204 202 244 216 330 344 352 320 8 341 308 284 256 240 228 226
323 326 328 333 320 274 172 358 352 315 59 277 255 206 184 156 220 197 189 165 85 189 159 239 277 247 293 282 136 301 212 243 256 70 265 57 285 18 1 8 3 321 258 238 237
320 323 323 322 302 284 224 334 341 350 40 167 183 175 168 170 143 193 189 199 176 172 119 249 210 210 231 222 172 228 42 23 22 179 13 21 75 325 340 0 352 350 1 245 237
319 318 316 313 292 248 232 288 288 38 248 148 135 150 126 169 65 126 172 178 153 173 249 239 246 213 216 212 178 105 99 50 52 66 34 319 104 320 7 337 328 340 0 5 279
319 314 307 297 269 186 201 193 36 128 334 169 172 158 124 141 232 135 158 177 177 99 306 321 243 273 198 126 91 78 54 352 3 9 175 245 65 209 321 340 335 338 348 357 8
321 313 298 271 206 178 161 59 165 253 244 312 110 87 162 152 230 115 99 188 199 98 47 36 353 352 177 179 160 86 138 146 242 237 288 1 135 190 12 341 348 358 0 9 13
327 322 315 196 185 174 166 91 206 215 288 333 95 107 210 207 129 119 168 190 208 169 183 147 300 333 26 39 122 175 63 162 103 8 62 310 341 6 349 350 358 359 4 7 11
337 13 69 155 167 163 85 234 247 228 331 346 176 135 160 212 154 167 187 211 240 192 169 216 23 22 296 17 32 102 148 58 10 91 2 13 67 306 338 341 341 353 355 1 11
346 91 77 132 148 143 161 233 266 276 252 195 219 135 124 129 135 196 61 309 3 25 143 129 104 296 39 15 300 6 29 57 110 99 153 204 208 347 312 323 330 339 353 2 15
20 71 145 142 87 42 188 208 299 276 250 275 117 80 77 63 58 103 130 273 336 174 153 158 122 70 157 295 334 65 87 87 114 236 85 135 234 4 306 323 335 341 358 17 29
60 93 164 167 125 275 288 283 258 308 357 26 53 60 60 74 87 42 152 350 23 84 163 185 35 84 328 352 1 51 11 91 113 83 135 130 229 189 0 348 354 358 12 17 19
25 69 140 220 110 138 312 278 298 214 59 67 40 77 93 46 20 96 12 343 13 53 74 94 91 149 191 183 135 67 7 8 98 117 176 193 172 331 334 348 354 5 17 20 27
25 54 103 246 291 278 342 284 300 18 53 35 39 42 80 98 62 49 14 344 358 12 35 85 99 78 44 65 86 90 53 29 74 73 114 164 144 330 327 314 329 347 2 8 15
35 24 352 303 295 187 135 238 82 94 39 28 94 1 98 106 152 158 146 28 14 345 54 7 145 137 72 43 64 88 44 62 46 76 82 100 178 38 347 345 343 340 346 357 0
16 6 349 351 5 112 239 312 23 123 40 74 146 84 62 141 191 12 253 176 167 99 50 61 126 87 131 143 10 18 343 83 115 96 140 186 197 3 342 338 330 329 342 349 347
Height
1536 1534 1531 1529 1526 1524 1522 1520 1518 1517 1516 1515 1514 1512 1511 1510 1510 1510 1510 1514 1515 1517 1518 1519 1519 1518 1517 1516 1518 1518 1529 1534 1524 1522 1511 1508 1511 1512 1513 1515 1518 1519 1521 1523 1526
1535 1533 1531 1528 1526 1523 1521 1519 1517 1515 1514 1513 1512 1511 1510 1509 1507 1507 1511 1512 1514 1516 1519 1519 1519 1518 1517 1516 1517 1518 1528 1522 1509 1507 1507 1507 1511 1511 1514 1515 1517 1518 1520 1522 1526
1535 1533 1531 1528 1525 1523 1520 1517 1515 1514 1513 1512 1511 1510 1509 1508 1507 1508 1508 1510 1512 1515 1517 1519 1519 1518 1518 1518 1518 1518 1521 1511 1504 1504 1508 1508 1511 1512 1512 1515 1512 1515 1519 1522 1527
1535 1532 1530 1527 1524 1522 1519 1516 1514 1512 1512 1511 1510 1509 1508 1508 1512 1508 1507 1509 1513 1515 1518 1518 1518 1517 1517 1517 1515 1518 1509 1509 1505 1504 1505 1507 1510 1510 1510 1507 1510 1513 1517 1520 1525
1534 1531 1529 1526 1523 1520 1518 1515 1513 1511 1511 1510 1509 1508 1508 1508 1507 1507 1508 1510 1512 1515 1517 1518 1518 1518 1518 1516 1514 1514 1509 1505 1502 1502 1505 1505 1507 1509 1506 1508 1509 1514 1518 1520 1523
1533 1530 1528 1525 1522 1519 1516 1514 1512 1510 1510 1509 1509 1508 1508 1508 1506 1507 1507 1509 1512 1515 1516 1517 1518 1518 1517 1516 1515 1512 1508 1503 1500 1499 1503 1506 1507 1507 1505 1508 1511 1512 1517 1521 1524
1532 1529 1526 1523 1520 1518 1515 1512 1510 1509 1509 1509 1508 1507 1507 1507 1506 1507 1508 1508 1511 1514 1516 1517 1518 1518 1516 1514 1512 1509 1510 1500 1502 1500 1501 1505 1512 1505 1505 1508 1511 1513 1516 1520 1523
1531 1528 1525 1521 1519 1517 1513 1511 1509 1509 1508 1508 1507 1507 1504 1505 1506 1507 1508 1508 1510 1513 1515 1517 1518 1517 1515 1515 1512 1515 1514 1525 1501 1502 1502 1505 1515 1499 1502 1506 1509 1512 1515 1517 1519
1529 1526 1523 1520 1517 1515 1512 1510 1509 1508 1508 1507 1507 1507 1504 1505 1506 1507 1508 1510 1511 1514 1516 1517 1517 1517 1516 1522 1528 1527 1537 1528 1515 1502 1504 1505 1508 1497 1500 1503 1506 1509 1513 1515 1519
1528 1525 1522 1518 1516 1513 1511 1509 1508 1507 1507 1507 1506 1508 1505 1505 1505 1506 1509 1510 1512 1514 1516 1517 1517 1522 1527 1532 1549 1538 1537 1528 1528 1508 1504 1508 1506 1498 1501 1502 1501 1506 1509 1511 1514
1527 1523 1520 1517 1514 1512 1510 1509 1511 1509 1506 1505 1505 1505 1504 1505 1505 1507 1509 1511 1512 1514 1519 1518 1526 1535 1529 1527 1527 1528 1532 1533 1516 1506 1508 1506 1505 1498 1496 1501 1501 1502 1504 1506 1504
1525 1521 1518 1515 1513 1511 1510 1510 1510 1512 1506 1501 1502 1502 1503 1504 1505 1507 1510 1512 1512 1518 1517 1526 1534 1521 1523 1525 1528 1530 1533 1530 1515 1505 1510 1504 1502 1491 1492 1489 1489 1491 1496 1499 1504
1523 1519 1516 1514 1512 1511 1510 1511 1510 1508 1508 1501 1500 1500 1503 1505 1506 1507 1510 1511 1513 1520 1522 1532 1522 1517 1519 1520 1524 1527 1529 1522 1521 1510 1506 1507 1510 1511 1502 1500 1502 1500 1499 1499 1498
1520 1517 1514 1512 1513 1510 1510 1510 1509 1508 1517 1504 1500 1500 1502 1503 1506 1507 1509 1513 1515 1522 1525 1526 1516 1516 1517 1519 1520 1528 1512 1513 1514 1522 1534 1512 1543 1522 1515 1509 1507 1504 1498 1497 1499
1517 1514 1512 1510 1509 1509 1510 1510 1509 1508 1535 1499 1498 1498 1500 1503 1504 1505 1508 1511 1515 1518 1523 1523 1515 1517 1521 1516 1514 1519 1507 1511 1513 1522 1524 1525 1543 1536 1523 1511 1507 1505 1495 1492 1493
1513 1511 1508 1507 1506 1508 1508 1509 1510 1524 1527 1499 1495 1498 1501 1502 1503 1505 1508 1511 1513 1515 1516 1515 1510 1509 1506 1503 1506 1507 1510 1521 1529 1534 1550 1542 1540 1552 1537 1535 1519 1506 1497 1497 1494
1510 1507 1504 1504 1505 1505 1507 1509 1526 1535 1500 1501 1499 1497 1500 1504 1505 1505 1509 1514 1522 1531 1528 1516 1507 1501 1500 1506 1505 1511 1529 1559 1554 1563 1556 1542 1551 1561 1543 1534 1528 1516 1504 1497 1492
1506 1502 1500 1501 1502 1505 1507 1512 1529 1509 1505 1494 1495 1498 1505 1504 1504 1506 1513 1521 1515 1520 1532 1534 1529 1502 1499 1500 1510 1515 1524 1556 1558 1567 1558 1539 1559 1553 1541 1535 1529 1521 1511 1497 1490
1501 1498 1497 1498 1501 1504 1507 1526 1518 1508 1497 1496 1497 1503 1504 1501 1503 1506 1512 1518 1511 1512 1528 1533 1523 1501 1499 1499 1501 1515 1530 1525 1555 1561 1560 1560 1548 1538 1534 1527 1520 1516 1512 1507 1501
1499 1497 1498 1499 1501 1505 1509 1519 1508 1499 1496 1495 1501 1499 1507 1505 1509 1509 1513 1503 1504 1501 1502 1513 1527 1507 1504 1501 1502 1504 1517 1534 1545 1559 1558 1563 1568 1563 1547 1538 1528 1523 1520 1516 1510
1498 1498 1500 1500 1503 1505 1518 1515 1503 1495 1495 1495 1495 1498 1499 1502 1506 1512 1513 1503 1500 1501 1502 1511 1520 1519 1511 1521 1524 1521 1526 1537 1543 1553 1563 1569 1572 1554 1554 1547 1540 1532 1528 1523 1516
1498 1500 1502 1503 1506 1510 1513 1506 1500 1495 1493 1492 1492 1494 1498 1503 1511 1508 1511 1508 1500 1499 1506 1507 1525 1540 1531 1521 1519 1519 1528 1536 1548 1547 1561 1562 1572 1552 1551 1549 1545 1539 1534 1529 1524
1499 1501 1504 1504 1513 1513 1506 1502 1500 1496 1494 1492 1494 1494 1499 1509 1514 1509 1506 1503 1499 1500 1505 1506 1530 1549 1542 1532 1523 1530 1531 1534 1542 1549 1557 1560 1565 1549 1549 1548 1546 1542 1536 1531 1527
1501 1504 1505 1506 1506 1507 1506 1504 1500 1495 1496 1495 1497 1496 1500 1510 1510 1512 1509 1503 1501 1501 1501 1503 1530 1532 1546 1534 1533 1536 1537 1535 1538 1552 1556 1557 1555 1550 1548 1546 1543 1541 1539 1535 1529
1503 1505 1506 1508 1507 1506 1507 1503 1500 1499 1496 1497 1500 1502 1503 1511 1512 1515 1511 1509 1505 1504 1503 1507 1530 1530 1536 1533 1534 1540 1543 1540 1543 1547 1549 1554 1554 1552 1552 1549 1545 1542 1538 1534 1531
1506 1507 1506 1505 1505 1506 1507 1502 1499 1500 1499 1503 1505 1505 1504 1512 1512 1515 1513 1513 1515 1509 1510 1513 1534 1529 1540 1538 1538 1546 1545 1544 1546 1549 1554 1554 1555 1552 1549 1546 1543 1541 1539 1536 1533
1509 1508 1508 1506 1505 1506 1507 1502 1500 1499 1502 1502 1504 1505 1507 1509 1509 1508 1510 1511 1512 1514 1516 1520 1530 1538 1547 1545 1546 1553 1548 1548 1550 1550 1550 1557 1553 1551 1549 1547 1544 1541 1539 1536 1533